WZZ88KC EPKK-LEIB

Flight info

Callsign WZZ88KC
Flight time N/A
Altitude 34000
Route TUSIN DCT LEDVA DCT INLOX DCT TIBRO/N0428F330 DCT KOPER/N0436F350 DCT MIVKI DCT RIXOT
Aircraft A320/M-SDE3FGHIRWY/LB1

Departure

Time 2026-04-30 17:41
Airport Kraków John Paul II International Airport (EPKK)

Arrival

Time N/A
Airport Ibiza Airport (LEIB)
Time Latitude Longitude Altitude Speed Heading
2026-04-30 17:39 50.08004 19.80136 801 ft 0 kts 258°
2026-04-30 17:41 50.06981 19.72959 2477 ft 178 kts 262°
2026-04-30 17:42 50.06410 19.68745 3398 ft 220 kts 260°
2026-04-30 17:42 50.05194 19.60795 5520 ft 269 kts 256°
2026-04-30 17:43 50.04098 19.55149 7276 ft 276 kts 255°
2026-04-30 17:44 50.02370 19.46368 9537 ft 292 kts 256°
2026-04-30 17:44 50.00517 19.36801 10904 ft 336 kts 256°
2026-04-30 17:46 49.96951 19.18537 13895 ft 365 kts 256°
2026-04-30 17:47 49.93918 19.03132 16125 ft 379 kts 256°
2026-04-30 17:48 49.90767 18.87231 18317 ft 392 kts 257°
2026-04-30 17:48 49.88321 18.74967 19807 ft 402 kts 257°
2026-04-30 17:49 49.84644 18.58347 21658 ft 420 kts 244°
2026-04-30 17:50 49.76839 18.44289 23363 ft 439 kts 229°
2026-04-30 17:51 49.70490 18.33848 24475 ft 449 kts 229°
2026-04-30 17:52 49.63996 18.23222 25466 ft 458 kts 229°
2026-04-30 17:53 49.52837 18.05110 27096 ft 473 kts 228°
2026-04-30 17:54 49.43634 17.90269 28328 ft 485 kts 228°
2026-04-30 17:55 49.34204 17.75148 29585 ft 496 kts 227°
2026-04-30 17:56 49.24588 17.59818 31044 ft 499 kts 227°
2026-04-30 17:57 49.17385 17.48396 32254 ft 496 kts 227°
2026-04-30 17:58 49.10215 17.37087 33491 ft 493 kts 227°
2026-04-30 17:59 49.00682 17.22094 34388 ft 494 kts 227°
2026-04-30 18:00 48.91067 17.07090 34378 ft 496 kts 227°
2026-04-30 18:01 48.79001 16.88369 34370 ft 497 kts 226°
2026-04-30 18:02 48.64095 16.66612 34364 ft 498 kts 222°